When you browse on this site, cookies collect data to enhance your experience and personalize the content and advertising you see.
Visit our Privacy Policy to learn more. By continuing to use the site, you agree to this use of cookies and data.
  • In Hungary
  • List of Countries
  • For 7 days
  • Water Temperature
  • Satellite Maps
  • Weather Map
  • News
  • Weather Widgets
  • user-avatar
    Login

    Hourly Weather Cochabamba

    Today, 12 December, Wednesday

    Time Temperature Precipitation Wind Pressure Humidity
    00:00 +18°C° 0 mm 2 mps 557 mmHg 66%
    01:00 +18°C° 0 mm 2 mps 557 mmHg 67%
    02:00 +17°C° 0 mm 2 mps 557 mmHg 69%
    03:00 +17°C° 0 mm 2 mps 556 mmHg 69%
    04:00 +16°C° 0 mm 2 mps 556 mmHg 69%
    05:00 +16°C° 0 mm 2 mps 556 mmHg 69%
    06:00 +17°C° 0 mm 2 mps 557 mmHg 64%
    07:00 +18°C° 0 mm 2 mps 557 mmHg 58%
    08:00 +19°C° 0 mm 2 mps 558 mmHg 53%
    09:00 +21°C° 0 mm 2 mps 559 mmHg 46%
    10:00 +24°C° 0 mm 2 mps 559 mmHg 39%
    11:00 +25°C° 0 mm 2 mps 559 mmHg 33%
    12:00 +26°C° 0.3 mm 2 mps 559 mmHg 35%
    13:00 +26°C° 0.3 mm 3 mps 559 mmHg 36%
    14:00 +26°C° 0.3 mm 3 mps 558 mmHg 38%
    15:00 +26°C° 0.4 mm 4 mps 558 mmHg 42%
    16:00 +25°C° 0.4 mm 4 mps 557 mmHg 46%
    17:00 +23°C° 0.4 mm 5 mps 556 mmHg 50%
    18:00 +22°C° 0.4 mm 4 mps 556 mmHg 55%
    19:00 +20°C° 0.4 mm 4 mps 556 mmHg 61%
    20:00 +19°C° 0.4 mm 3 mps 556 mmHg 67%
    21:00 +19°C° 0.1 mm 3 mps 556 mmHg 68%
    22:00 +18°C° 0.1 mm 2 mps 557 mmHg 68%
    23:00 +18°C° 0.1 mm 2 mps 558 mmHg 69%

    Tomorrow, 13 December, Thursday

    Time Temperature Precipitation Wind Pressure Humidity
    00:00 +19°C° 0.2 mm 1 mps 557 mmHg 67%
    01:00 +19°C° 0.2 mm 1 mps 557 mmHg 65%
    02:00 +18°C° 0.2 mm 1 mps 557 mmHg 63%
    03:00 +18°C° 0 mm 1 mps 557 mmHg 63%
    04:00 +18°C° 0 mm 1 mps 556 mmHg 62%
    05:00 +18°C° 0 mm 1 mps 556 mmHg 62%
    06:00 +19°C° 0 mm 1 mps 557 mmHg 58%
    07:00 +19°C° 0 mm 1 mps 557 mmHg 54%
    08:00 +19°C° 0 mm 2 mps 558 mmHg 50%
    09:00 +20°C° 0.1 mm 2 mps 558 mmHg 46%
    10:00 +23°C° 0.1 mm 2 mps 559 mmHg 43%
    11:00 +24°C° 0.1 mm 2 mps 559 mmHg 39%
    12:00 +24°C° 0.4 mm 2 mps 558 mmHg 39%
    13:00 +25°C° 0.4 mm 2 mps 558 mmHg 40%
    14:00 +25°C° 0.4 mm 3 mps 557 mmHg 40%
    15:00 +25°C° 0.5 mm 3 mps 557 mmHg 43%
    16:00 +23°C° 0.5 mm 4 mps 556 mmHg 46%
    17:00 +23°C° 0.5 mm 4 mps 555 mmHg 49%
    18:00 +21°C° 0.2 mm 4 mps 555 mmHg 55%
    19:00 +20°C° 0.2 mm 4 mps 555 mmHg 61%
    20:00 +18°C° 0.2 mm 3 mps 555 mmHg 67%
    21:00 +18°C° 0 mm 3 mps 555 mmHg 67%
    22:00 +18°C° 0 mm 2 mps 555 mmHg 67%
    23:00 +17°C° 0 mm 2 mps 555 mmHg 67%

    Day after tomorrow, 14 December, Friday

    Time Temperature Precipitation Wind Pressure Humidity
    00:00 +17°C° 0 mm 2 mps 555 mmHg 67%
    01:00 +17°C° 0 mm 2 mps 554 mmHg 67%
    02:00 +16°C° 0 mm 2 mps 554 mmHg 67%
    03:00 +16°C° 0 mm 2 mps 554 mmHg 68%
    04:00 +16°C° 0 mm 2 mps 554 mmHg 68%
    05:00 +15°C° 0 mm 2 mps 553 mmHg 68%
    06:00 +17°C° 0 mm 2 mps 554 mmHg 62%
    07:00 +18°C° 0 mm 2 mps 555 mmHg 56%
    08:00 +19°C° 0 mm 2 mps 556 mmHg 50%
    09:00 +20°C° 0 mm 2 mps 557 mmHg 47%
    10:00 +23°C° 0 mm 2 mps 557 mmHg 44%
    11:00 +24°C° 0 mm 3 mps 558 mmHg 41%
    12:00 +24°C° 0.2 mm 3 mps 557 mmHg 43%
    13:00 +25°C° 0.2 mm 3 mps 557 mmHg 45%
    14:00 +25°C° 0.2 mm 3 mps 556 mmHg 46%
    15:00 +24°C° 0.2 mm 3 mps 556 mmHg 48%
    16:00 +23°C° 0.2 mm 4 mps 555 mmHg 50%
    17:00 +23°C° 0.2 mm 4 mps 555 mmHg 52%
    18:00 +21°C° 0.3 mm 4 mps 555 mmHg 58%
    19:00 +20°C° 0.3 mm 3 mps 555 mmHg 64%
    20:00 +19°C° 0.3 mm 3 mps 554 mmHg 70%
    21:00 +18°C° 0.3 mm 3 mps 555 mmHg 71%
    22:00 +18°C° 0.3 mm 2 mps 555 mmHg 73%
    23:00 +18°C° 0.3 mm 2 mps 556 mmHg 75%

    15 December, Saturday

    Time Temperature Precipitation Wind Pressure Humidity
    00:00 +18°C° 0.3 mm 1 mps 556 mmHg 75%
    01:00 +18°C° 0.3 mm 1 mps 555 mmHg 74%
    02:00 +16°C° 0.3 mm 1 mps 555 mmHg 74%
    03:00 +16°C° 0.2 mm 1 mps 555 mmHg 74%
    04:00 +16°C° 0.2 mm 1 mps 555 mmHg 75%
    05:00 +15°C° 0.2 mm 1 mps 554 mmHg 75%
    06:00 +16°C° 0.1 mm 1 mps 555 mmHg 71%
    07:00 +18°C° 0.1 mm 1 mps 556 mmHg 67%
    08:00 +19°C° 0.1 mm 1 mps 557 mmHg 64%
    09:00 +19°C° 0.4 mm 1 mps 557 mmHg 61%
    10:00 +19°C° 0.4 mm 2 mps 558 mmHg 57%
    11:00 +20°C° 0.4 mm 2 mps 558 mmHg 54%
    12:00 +20°C° 0.7 mm 2 mps 557 mmHg 54%
    13:00 +21°C° 0.7 mm 3 mps 557 mmHg 54%
    14:00 +21°C° 0.7 mm 3 mps 556 mmHg 54%
    15:00 +20°C° 0.6 mm 3 mps 556 mmHg 57%
    16:00 +20°C° 0.6 mm 3 mps 555 mmHg 59%
    17:00 +19°C° 0.6 mm 3 mps 555 mmHg 62%
    18:00 +19°C° 0.7 mm 2 mps 555 mmHg 65%
    19:00 +18°C° 0.7 mm 2 mps 555 mmHg 68%
    20:00 +17°C° 0.7 mm 2 mps 556 mmHg 71%
    21:00 +17°C° 0.8 mm 2 mps 556 mmHg 73%
    22:00 +16°C° 0.8 mm 2 mps 556 mmHg 75%
    23:00 +16°C° 0.8 mm 2 mps 557 mmHg 77%

    16 December, Sunday

    Time Temperature Precipitation Wind Pressure Humidity
    00:00 +16°C° 0.5 mm 2 mps 556 mmHg 77%
    01:00 +15°C° 0.5 mm 2 mps 556 mmHg 78%
    02:00 +15°C° 0.5 mm 2 mps 555 mmHg 78%
    03:00 +15°C° 0.2 mm 2 mps 555 mmHg 77%
    04:00 +15°C° 0.2 mm 1 mps 555 mmHg 76%
    05:00 +15°C° 0.2 mm 1 mps 555 mmHg 75%
    06:00 +15°C° 0.2 mm 1 mps 556 mmHg 72%
    07:00 +16°C° 0.2 mm 1 mps 557 mmHg 68%
    08:00 +16°C° 0.2 mm 1 mps 557 mmHg 65%
    09:00 +18°C° 0.3 mm 2 mps 558 mmHg 60%
    10:00 +19°C° 0.3 mm 2 mps 558 mmHg 55%
    11:00 +20°C° 0.3 mm 2 mps 558 mmHg 51%
    12:00 +21°C° 0.3 mm 3 mps 558 mmHg 50%
    13:00 +21°C° 0.3 mm 3 mps 557 mmHg 50%
    14:00 +22°C° 0.3 mm 4 mps 557 mmHg 49%
    15:00 +21°C° 0.2 mm 4 mps 556 mmHg 53%
    16:00 +21°C° 0.2 mm 4 mps 556 mmHg 56%
    17:00 +20°C° 0.2 mm 4 mps 555 mmHg 59%
    18:00 +19°C° 0.2 mm 4 mps 555 mmHg 64%
    19:00 +18°C° 0.2 mm 3 mps 555 mmHg 68%
    20:00 +17°C° 0.2 mm 3 mps 555 mmHg 72%
    21:00 +17°C° 0.2 mm 3 mps 556 mmHg 73%
    22:00 +17°C° 0.2 mm 2 mps 556 mmHg 74%
    23:00 +16°C° 0.2 mm 2 mps 556 mmHg 75%

    17 December, Monday

    Time Temperature Precipitation Wind Pressure Humidity
    00:00 +16°C° 0.4 mm 2 mps 556 mmHg 75%
    01:00 +16°C° 0.4 mm 2 mps 555 mmHg 75%
    02:00 +16°C° 0.4 mm 2 mps 555 mmHg 75%
    03:00 +15°C° 0.7 mm 2 mps 555 mmHg 76%
    04:00 +15°C° 0.7 mm 2 mps 555 mmHg 76%
    05:00 +15°C° 0.7 mm 2 mps 555 mmHg 77%
    06:00 +15°C° 1 mm 2 mps 555 mmHg 75%
    07:00 +15°C° 1 mm 2 mps 556 mmHg 73%
    08:00 +16°C° 1 mm 2 mps 556 mmHg 72%
    09:00 +16°C° 1.2 mm 2 mps 556 mmHg 70%
    10:00 +17°C° 1.2 mm 2 mps 557 mmHg 68%
    11:00 +17°C° 1.2 mm 2 mps 557 mmHg 66%
    12:00 +18°C° 0.8 mm 3 mps 556 mmHg 64%
    13:00 +18°C° 0.8 mm 3 mps 556 mmHg 63%
    14:00 +19°C° 0.8 mm 3 mps 556 mmHg 61%
    15:00 +19°C° 0.5 mm 3 mps 555 mmHg 62%
    16:00 +19°C° 0.5 mm 3 mps 555 mmHg 63%
    17:00 +18°C° 0.5 mm 3 mps 555 mmHg 64%
    18:00 +18°C° 0.2 mm 3 mps 555 mmHg 67%
    19:00 +17°C° 0.2 mm 3 mps 555 mmHg 71%
    20:00 +16°C° 0.2 mm 2 mps 555 mmHg 75%
    21:00 +16°C° 0.4 mm 2 mps 555 mmHg 75%
    22:00 +16°C° 0.4 mm 2 mps 556 mmHg 76%
    23:00 +15°C° 0.4 mm 2 mps 556 mmHg 76%
    Show more